IRIDIUM 58 [P]

Last updated on Sat Mar 30 2019 03:14:07 GMT+0000 (Coordinated Universal Time)

1 25274U 98019C 19088.47825886 .02613520 -15625-5 10255-2 0 9990 2 25274 86.7222 15.3496 0362214 155.3364 206.5721 15.54650879 99586

Satellite not in orbit